Regional Weather Roundup
Issued by NWS Charleston, SC

Current Version | Previous Version | Graphics & Text | Print | Product List | Glossary On
Versions: 1 2 3 4 5 6 7 8 9 10 11 12 13 14 15 16 17 18 19 20 21 22 23 24 25 26 27 28 29 30 31 32 33 34 35 36 37 38 39 40 41 42 43 44 45 46 47 48 49 50
000
ASUS42 KCHS 231410
RWRCHS
REGIONAL WEATHER ROUNDUP
NATIONAL WEATHER SERVICE CHARLESTON SC
1000 AM EDT SAT AUG 23 2014

NOTE: "FAIR" INDICATES FEW OR NO CLOUDS BELOW 12,000 FEET WITH NO
SIGNIFICANT WEATHER AND/OR OBSTRUCTIONS TO VISIBILITY.

NOT ALL STATIONS ARE QUALITY CONTROLLED BY THE NATIONAL
WEATHER SERVICE. USE DATA WITH CAUTION...ESPECIALLY
DEWPOINT OBSERVATIONS.

SCZ027-030-031-034>040-042>050-231500-
...SOUTH CAROLINA...

CITY           SKY/WX    TMP DP  RH WIND       PRES   REMARKS
N CHARLESTON   MOSUNNY   90  75  61 NW5       29.93S HX 100
WATERFRONT PRK   N/A     88 N/A N/A W5          N/A
FORT JOHNSON   NOT AVBL
MOUNT PLEASANT FAIR      90  75  62 CALM      29.93R HX 100
JOHNS ISLAND   SUNNY     90  75  62 NW7       29.93S HX 100
PINOPOLIS        N/A     88  75  66 W2        29.84S HX  97
MONCKS CORNER    N/A     88  79  74 CALM      29.93S HX 102
SUMMERVILLE    FAIR      84  77  79 CALM      29.95R HX  94
BEAUFORT MCAS  SUNNY     89  74  60 NW7       29.95R HX  98
BEAUFORT ARPT  FAIR      88  75  66 NW6       29.94R HX  97
HILTON HEAD IS SUNNY     88  72  58 W7        29.96R HX  94
GEORGETOWN     NOT AVBL
WALTERBORO     SUNNY     88  70  55 CALM      29.95S HX  92
ORANGEBURG     SUNNY     86  72  62 CALM      29.94S HX  92
BARNWELL       FAIR      86  73  66 NW6       29.96S HX  93
AIKEN          FAIR      88  73  62 N6        30.00S HX  96
MANNING        FAIR      86  77  74 CALM      29.93S HX  97
KINGSTREE      NOT AVBL
COLUMBIA       MOSUNNY   88  72  58 N6        29.95R HX  94
SUMTER         MOSUNNY   84  75  74 N8        29.94R HX  93
FLORENCE       SUNNY     86  73  65 NE7       29.94S HX  93
MYRTLE BEACH   MOSUNNY   86  75  70 NE5       29.92S HX  95
N MYRTLE BEACH MOSUNNY   83  78  85 NE3       29.92S HX  93

$$

GAZ063-065-086>088-099>101-113>116-118-119-134-136>141-150-231500-
...GEORGIA...

CITY           SKY/WX    TMP DP  RH WIND       PRES   REMARKS
SAVANNAH ARPT  MOSUNNY   89  73  59 NW6       29.96R HX  97
HUNTER AAF     SUNNY     89  74  62 NW7       29.94R HX  97
FORT STEWART   SUNNY     91  72  53 VRB5      29.95S HX  98
STATESBORO     NOT AVBL
SYLVANIA       SUNNY     88  76  65 NW6       29.97S HX  99
CLAXTON        FAIR      88  77  70 W3        29.97S HX 100
THOMSON        SUNNY     86  78  76 NW3       30.03S HX  97
AUGUSTA-BUSH   SUNNY     87  72  60 N8        29.96S HX  93
AUGUSTA-DANIEL SUNNY     87  71  58 NW7       29.98S HX  93
SWAINSBORO     FAIR      90  75  62 NW9       29.99S HX 100
VIDALIA          N/A     90  73  58 NW8       29.99R HX  98
ALMA           SUNNY     88  72  58 N6        29.98S HX  94
WAYCROSS       SUNNY     90  78  67 N5        29.98S HX 104
JESUP            N/A     90  75  62 NW5       29.98R HX 100
BRUNSWICK      SUNNY     88  73  62 NW5       29.97S HX  96
SAINT SIMONS   SUNNY     88  72  58 NW6       29.96S HX  94

$$

SCZ027-028-034-036>038-045-046-048>050-GAZ119-141-231500-
...LAKE AND SUPPLEMENTAL COASTAL OBSERVATIONS...

STATION/POSITION TIME  TEMP    WIND        PRES    WAVE   SWELL
                       AIR SEA DIR/SP/G            HT/PER HT/PER/DIR
                 (UTC) (F)     (DEG/KT/KT) (MB)    (FT/S) (FT/S/D)
UPR LAKE MARION  NOT AVBL
WINYAH BAY       1300   82     280/  3     1013.0S
LAKE MURRAY      1300   84     360/  2/  4 1013.9S
ACE BASIN NERRS  1300   83     290/  2     1013.0S
FORT PULASKI     1400   85     280/  9/ 10 1014.4R
SAPELO ISLAND    1300   85     300/  4     1015.0S

$$

ANZ835-935-AMZ111-154-330-350-352-354-374-450-454-472-231500-
...C-MAN AND BUOY OBSERVATIONS...

STATION/POSITION TIME  TEMP    WIND        PRES    WAVE   SWELL
                       AIR SEA DIR/SP/G            HT/PER HT/PER/DIR
                 (UTC) (F)     (DEG/KT/KT) (MB)    (FT/S) (FT/S/D)
FOLLY BEACH CMAN 1300   85     290/  5/  9 1013.7R
BUOY 41004       1400   85 84  250/ 10/ 12 1012.6R   2/ 4   2/ 7
BUOY 41008       1400   85 85  300/ 10/ 10 1014.2R   1/ 3
5E ST. MARYS GA  1400      83                N/A     1/10
FRYING PAN BUOY  NOT AVBL
BUOY 41025       1400   78     350/  8/ 12 1014.0R   2/ 8   2/ 50/ 8
CAPE LOOKOUT NC  1300   78      30/ 10/ 11 1013.9R
BUOY 41002       1259   80 82   90/  2/  4 1014.8    2/ 5   2/230/ 5
BUOY 41010       1400   84 86  240/  4/  6 1015.4R   2/ 7   2/150/ 7
BUOY 41012       NOT AVBL
ST AUGUSTINE FL  1400   86     280/  4/  6 1015.7R
CAPERS NEARSHORE 1300   86     290/  6/  8   N/A
FRIPP NEARSHORE  NOT AVBL


$$



USA.gov is the U.S. government's official web portal to all federal, state and local government web resources and services.